Flight Track Log - Related Links

Times and Time Zones

All times are in EDT time to prevent confusion due to time zone crossing. See the SKW6345 flight status page for this flight to view local times or setup timezone preferences in your user account.

Time Position Orientation Groundspeed Altitude Reporting Facility
EDT Latitude Longitude Course Direction KTS MPH feet Rate Location/Type
Sun 09:01:17 PM 33.9333 -118.4333 209° Southwest 155 178 1,900  Level Southern California TRACON
Sun 09:02:23 PM 33.8833 -118.4667 209° Southwest 194 223 3,700 1,811 Climbing Southern California TRACON
Sun 09:03:03 PM 33.8472 -118.4672 181° South 190 219 5,100 1,647 Climbing Los Angeles Center
Sun 09:04:05 PM 33.7942 -118.4769 189° South 194 223 6,500 1,500 Climbing Los Angeles Center
Sun 09:05:07 PM 33.7467 -118.4403 147° Southeast 206 237 8,200 1,161 Climbing Los Angeles Center
Sun 09:06:09 PM 33.7033 -118.3897 136° Southeast 224 258 8,900 339 Climbing Los Angeles Center
Sun 09:07:11 PM 33.6561 -118.3003 122° Southeast 266 306 8,900 48 Level Los Angeles Center
Sun 09:08:13 PM 33.6167 -118.2250 122° Southeast 270 311 9,000 48 Climbing Los Angeles Center
Sun 09:09:15 PM 33.5786 -118.1500 121° Southeast 266 306 9,000 -48 Level Los Angeles Center
Sun 09:10:17 PM 33.5406 -118.0753 121° Southeast 264 304 8,900  Descending Los Angeles Center
Sun 09:11:19 PM 33.4994 -118.0036 125° Southeast 263 303 9,000  Climbing Los Angeles Center
Sun 09:12:21 PM 33.4475 -117.9211 127° Southeast 260 299 8,900 -48 Descending Los Angeles Center
Sun 09:13:23 PM 33.4022 -117.8514 128° Southeast 263 303 8,900 48 Level Los Angeles Center
Sun 09:14:25 PM 33.3583 -117.7850 128° Southeast 260 299 9,000 48 Climbing Los Angeles Center
Sun 09:15:27 PM 33.3133 -117.7172 128° Southeast 259 298 9,000  Level Los Angeles Center
Sun 09:16:29 PM 33.2719 -117.6481 126° Southeast 257 296 9,000 -57 Level Los Angeles Center
Sun 09:17:13 PM 33.2333 -117.5833 125° Southeast 259 298 8,900 -55 Descending Southern California TRACON
Sun 09:18:19 PM 33.1833 -117.5167 132° Southeast 262 302 8,900  Level Southern California TRACON
Sun 09:19:19 PM 33.1167 -117.4667 148° Southeast 260 299 8,900 80 Level Southern California TRACON
Sun 09:19:34 PM 33.1031 -117.4642 171° South 260 299 9,000  Climbing Los Angeles Center
Sun 09:20:36 PM 33.0417 -117.4197 149° Southeast 259 298 8,900 -629 Descending Los Angeles Center
Sun 09:21:38 PM 32.9753 -117.3722 149° Southeast 271 312 7,700 -1,096 Descending Los Angeles Center
Sun 09:22:20 PM 32.9167 -117.3333 151° Southeast 287 330 7,000 -813 Descending Southern California TRACON
Sun 09:23:14 PM 32.8667 -117.2667 132° Southeast 284 327 6,400 -732 Descending Southern California TRACON
Sun 09:23:42 PM 32.8542 -117.2489 130° Southeast 285 328 6,000 -867 Descending Los Angeles Center
Sun 09:24:44 PM 32.8011 -117.1836 134° Southeast 274 315 5,100 -726 Descending Los Angeles Center
Sun 09:25:46 PM 32.7625 -117.1133 123° Southeast 230 265 4,500 -733 Descending Los Angeles Center
Sun 09:26:14 PM 32.7500 -117.0833 116° Southeast 208 239 4,000 -545 Descending Southern California TRACON
Sun 09:27:14 PM 32.7167 -117.0333 128° Southeast 205 236 3,700 -700 Descending Southern California TRACON
Sun 09:28:14 PM 32.7000 -117.0667 239° Southwest 138 159 2,600 -1,000 Descending Southern California TRACON
Sun 09:29:14 PM 32.7167 -117.1167 292° West 135 155 1,700 -909 Descending Southern California TRACON
Sun 09:29:53 PM 32.7203 -117.1364 282° West 136 157 1,100 -832 Descending Los Angeles Center
Sun 09:30:55 PM 32.7311 -117.1822 286° West 137 158 300 -774 Descending Los Angeles Center

Login

Don't have an account? Register now (free) for customized features, flight alerts, and more!